Time,TemperatureF,DewpointF,PressureIn,WindDirection,WindDirectionDegrees,WindSpeedMPH,WindSpeedGustMPH,Humidity,HourlyPrecipIn,Conditions,Clouds,dailyrainin,SoftwareType,DateUTC
2013-03-07 00:00:00,38.0,34.8,29.89,East,84,5.0,11.0,88,0.00,,,0.04,LWC V2.10 B1702,2013-03-07 05:00:00,
2013-03-07 00:05:00,37.9,34.7,29.89,East,86,7.0,14.0,88,0.00,,,0.00,LWC V2.10 B1702,2013-03-07 05:05:00,
2013-03-07 00:10:00,37.9,34.7,29.88,NE,53,7.0,13.0,88,0.00,,,0.00,LWC V2.10 B1702,2013-03-07 05:10:00,
2013-03-07 00:15:00,37.8,34.9,29.87,East,84,16.0,16.0,89,0.00,,,0.00,LWC V2.10 B1702,2013-03-07 05:15:00,
2013-03-07 00:20:00,37.7,34.8,29.87,East,88,8.0,11.0,89,0.00,,,0.00,LWC V2.10 B1702,2013-03-07 05:20:00,
2013-03-07 00:25:00,37.6,34.7,29.87,North,9,9.0,14.0,89,0.00,,,0.00,LWC V2.10 B1702,2013-03-07 05:25:00,
2013-03-07 00:30:00,37.6,34.9,29.87,East,89,6.0,13.0,90,0.00,,,0.00,LWC V2.10 B1702,2013-03-07 05:30:00,
2013-03-07 00:35:00,37.5,34.6,29.87,North,355,12.0,13.0,89,0.00,,,0.00,LWC V2.10 B1702,2013-03-07 05:35:00,
2013-03-07 00:40:00,37.5,34.8,29.87,ENE,78,2.0,9.0,90,0.00,,,0.01,LWC V2.10 B1702,2013-03-07 05:40:00,
2013-03-07 00:45:00,37.4,34.7,29.86,East,92,17.0,17.0,90,0.00,,,0.01,LWC V2.10 B1702,2013-03-07 05:45:00,
2013-03-07 00:50:00,37.4,34.7,29.87,SSE,149,2.0,9.0,90,0.00,,,0.01,LWC V2.10 B1702,2013-03-07 05:50:00,
2013-03-07 00:55:00,37.3,34.6,29.86,NE,48,3.0,13.0,90,0.00,,,0.01,LWC V2.10 B1702,2013-03-07 05:55:00,
2013-03-07 01:00:00,37.3,34.6,29.86,East,96,1.0,14.0,90,0.00,,,0.01,LWC V2.10 B1702,2013-03-07 06:00:00,
2013-03-07 01:05:00,37.3,34.6,29.87,North,5,5.0,12.0,90,0.00,,,0.01,LWC V2.10 B1702,2013-03-07 06:05:00,
2013-03-07 01:10:00,37.4,34.7,29.86,ESE,113,2.0,5.0,90,0.00,,,0.02,LWC V2.10 B1702,2013-03-07 06:10:00,
2013-03-07 01:15:00,37.4,34.7,29.86,ESE,116,8.0,12.0,90,0.00,,,0.02,LWC V2.10 B1702,2013-03-07 06:15:00,
2013-03-07 01:20:00,37.4,34.7,29.86,ENE,67,10.0,13.0,90,0.00,,,0.02,LWC V2.10 B1702,2013-03-07 06:20:00,
2013-03-07 01:25:00,37.4,34.7,29.86,East,88,15.0,15.0,90,0.00,,,0.02,LWC V2.10 B1702,2013-03-07 06:25:00,
2013-03-07 01:30:00,37.4,35.0,29.86,East,86,2.0,11.0,91,0.00,,,0.02,LWC V2.10 B1702,2013-03-07 06:30:00,
2013-03-07 01:35:00,37.4,34.7,29.86,ENE,69,5.0,18.0,90,0.00,,,0.02,LWC V2.10 B1702,2013-03-07 06:35:00,
2013-03-07 01:40:00,37.3,34.6,29.85,East,90,8.0,13.0,90,0.00,,,0.02,LWC V2.10 B1702,2013-03-07 06:40:00,
2013-03-07 01:45:00,37.3,34.6,29.85,ENE,64,5.0,15.0,90,0.00,,,0.02,LWC V2.10 B1702,2013-03-07 06:45:00,
2013-03-07 01:50:00,37.2,34.8,29.84,ENE,71,10.0,10.0,91,0.00,,,0.02,LWC V2.10 B1702,2013-03-07 06:50:00,
2013-03-07 01:55:00,37.2,34.8,29.84,NE,42,9.0,13.0,91,0.00,,,0.03,LWC V2.10 B1702,2013-03-07 06:55:00,
2013-03-07 02:00:00,37.1,34.7,29.85,ENE,61,2.0,14.0,91,0.00,,,0.03,LWC V2.10 B1702,2013-03-07 07:00:00,
2013-03-07 02:05:00,37.0,34.6,29.84,East,92,9.0,18.0,91,0.00,,,0.03,LWC V2.10 B1702,2013-03-07 07:05:00,
2013-03-07 02:10:00,37.0,34.6,29.84,East,79,9.0,11.0,91,0.04,,,0.04,LWC V2.10 B1702,2013-03-07 07:10:00,
2013-03-07 02:15:00,36.9,34.5,29.84,ENE,77,4.0,12.0,91,0.04,,,0.04,LWC V2.10 B1702,2013-03-07 07:15:00,
2013-03-07 02:20:00,36.8,34.4,29.84,ENE,76,12.0,13.0,91,0.06,,,0.05,LWC V2.10 B1702,2013-03-07 07:20:00,
2013-03-07 02:25:00,36.7,34.3,29.84,ENE,67,8.0,13.0,91,0.06,,,0.05,LWC V2.10 B1702,2013-03-07 07:25:00,
2013-03-07 02:30:00,36.7,34.3,29.84,NNE,30,5.0,14.0,91,0.05,,,0.05,LWC V2.10 B1702,2013-03-07 07:30:00,
2013-03-07 02:35:00,36.7,34.3,29.83,East,98,1.0,12.0,91,0.04,,,0.05,LWC V2.10 B1702,2013-03-07 07:35:00,
2013-03-07 02:38:00,36.6,34.2,29.83,NNE,25,7.0,11.0,91,0.00,,,0.05,LWC V2.10 B1702,2013-03-07 07:38:00,
2013-03-07 02:42:00,36.5,34.1,29.83,NE,44,1.0,14.0,91,0.00,,,0.06,LWC V2.10 B1702,2013-03-07 07:42:00,
2013-03-07 02:47:00,36.4,34.0,29.83,East,86,6.0,18.0,91,0.08,,,0.07,LWC V2.10 B1702,2013-03-07 07:47:00,
2013-03-07 02:52:00,36.3,33.9,29.83,NE,34,6.0,16.0,91,0.08,,,0.07,LWC V2.10 B1702,2013-03-07 07:52:00,
2013-03-07 02:57:00,36.2,33.8,29.83,North,9,3.0,14.0,91,0.07,,,0.08,LWC V2.10 B1702,2013-03-07 07:57:00,
2013-03-07 03:02:00,36.1,33.7,29.83,ENE,72,10.0,16.0,91,0.09,,,0.09,LWC V2.10 B1702,2013-03-07 08:02:00,
2013-03-07 03:07:00,36.0,33.6,29.83,ENE,66,3.0,15.0,91,0.09,,,0.09,LWC V2.10 B1702,2013-03-07 08:07:00,
2013-03-07 03:12:00,36.0,33.6,29.83,East,82,5.0,12.0,91,0.07,,,0.10,LWC V2.10 B1702,2013-03-07 08:12:00,
2013-03-07 03:17:00,36.1,34.0,29.83,ENE,63,8.0,14.0,92,0.07,,,0.10,LWC V2.10 B1702,2013-03-07 08:17:00,
2013-03-07 03:22:00,36.3,34.2,29.83,East,84,7.0,16.0,92,0.05,,,0.10,LWC V2.10 B1702,2013-03-07 08:22:00,
2013-03-07 03:27:00,36.3,34.2,29.83,East,85,7.0,9.0,92,0.05,,,0.11,LWC V2.10 B1702,2013-03-07 08:27:00,
2013-03-07 03:32:00,36.2,33.8,29.84,NNE,26,9.0,11.0,91,0.07,,,0.12,LWC V2.10 B1702,2013-03-07 08:32:00,
2013-03-07 03:37:00,36.1,33.7,29.83,NNE,29,12.0,12.0,91,0.07,,,0.12,LWC V2.10 B1702,2013-03-07 08:37:00,
2013-03-07 03:42:00,36.0,33.6,29.83,NE,36,5.0,17.0,91,0.06,,,0.13,LWC V2.10 B1702,2013-03-07 08:42:00,
2013-03-07 03:47:00,36.0,33.6,29.83,ENE,59,7.0,11.0,91,0.06,,,0.13,LWC V2.10 B1702,2013-03-07 08:47:00,
2013-03-07 03:52:00,35.9,33.5,29.83,East,92,8.0,18.0,91,0.07,,,0.14,LWC V2.10 B1702,2013-03-07 08:52:00,
2013-03-07 03:57:00,35.9,33.5,29.84,NE,44,11.0,11.0,91,0.07,,,0.14,LWC V2.10 B1702,2013-03-07 08:57:00,
2013-03-07 04:02:00,35.8,33.4,29.83,NE,47,7.0,17.0,91,0.07,,,0.15,LWC V2.10 B1702,2013-03-07 09:02:00,
2013-03-07 04:07:00,35.8,33.4,29.84,East,101,5.0,10.0,91,0.07,,,0.16,LWC V2.10 B1702,2013-03-07 09:07:00,
2013-03-07 04:12:00,35.9,33.8,29.84,NNE,15,7.0,13.0,92,0.07,,,0.16,LWC V2.10 B1702,2013-03-07 09:12:00,
2013-03-07 04:17:00,36.0,33.9,29.83,ESE,113,5.0,16.0,92,0.06,,,0.17,LWC V2.10 B1702,2013-03-07 09:17:00,
2013-03-07 04:22:00,36.1,34.0,29.84,WNW,301,7.0,13.0,92,0.06,,,0.17,LWC V2.10 B1702,2013-03-07 09:22:00,
2013-03-07 04:27:00,36.1,34.0,29.83,NNE,13,6.0,10.0,92,0.08,,,0.18,LWC V2.10 B1702,2013-03-07 09:27:00,
2013-03-07 04:32:00,36.1,34.0,29.83,NE,49,11.0,13.0,92,0.08,,,0.18,LWC V2.10 B1702,2013-03-07 09:32:00,
2013-03-07 04:37:00,36.1,34.0,29.84,ENE,66,3.0,10.0,92,0.05,,,0.18,LWC V2.10 B1702,2013-03-07 09:37:00,
2013-03-07 04:42:00,36.0,33.6,29.83,ENE,61,7.0,17.0,91,0.04,,,0.19,LWC V2.10 B1702,2013-03-07 09:42:00,
2013-03-07 04:47:00,35.9,33.5,29.84,ESE,110,5.0,17.0,91,0.04,,,0.19,LWC V2.10 B1702,2013-03-07 09:47:00,
2013-03-07 04:52:00,35.8,33.4,29.84,NNE,15,5.0,11.0,91,0.06,,,0.20,LWC V2.10 B1702,2013-03-07 09:52:00,
2013-03-07 04:57:00,35.7,33.6,29.84,NE,49,5.0,10.0,92,0.06,,,0.20,LWC V2.10 B1702,2013-03-07 09:57:00,
2013-03-07 05:02:00,35.7,33.6,29.84,North,0,9.0,12.0,92,0.05,,,0.21,LWC V2.10 B1702,2013-03-07 10:02:00,
2013-03-07 05:07:00,35.5,33.4,29.85,ESE,107,10.0,15.0,92,0.05,,,0.21,LWC V2.10 B1702,2013-03-07 10:07:00,
2013-03-07 05:12:00,35.4,33.0,29.85,ENE,70,4.0,15.0,91,0.05,,,0.21,LWC V2.10 B1702,2013-03-07 10:12:00,
2013-03-07 05:17:00,35.4,33.3,29.84,North,350,8.0,11.0,92,0.05,,,0.22,LWC V2.10 B1702,2013-03-07 10:17:00,
2013-03-07 05:22:00,35.3,33.2,29.84,NE,42,6.0,15.0,92,0.05,,,0.22,LWC V2.10 B1702,2013-03-07 10:22:00,
2013-03-07 05:27:00,35.3,33.2,29.84,NE,43,10.0,14.0,92,0.05,,,0.23,LWC V2.10 B1702,2013-03-07 10:27:00,
2013-03-07 05:32:00,35.2,33.1,29.84,ENE,72,10.0,10.0,92,0.05,,,0.23,LWC V2.10 B1702,2013-03-07 10:32:00,
2013-03-07 05:37:00,35.2,33.1,29.84,NE,36,5.0,23.0,92,0.05,,,0.23,LWC V2.10 B1702,2013-03-07 10:37:00,
2013-03-07 05:42:00,35.2,33.1,29.84,ENE,71,2.0,9.0,92,0.05,,,0.24,LWC V2.10 B1702,2013-03-07 10:42:00,
2013-03-07 05:47:00,35.2,33.1,29.84,East,85,11.0,12.0,92,0.07,,,0.25,LWC V2.10 B1702,2013-03-07 10:47:00,
2013-03-07 05:52:00,35.3,33.2,29.84,ENE,68,8.0,13.0,92,0.07,,,0.25,LWC V2.10 B1702,2013-03-07 10:52:00,
2013-03-07 05:57:00,35.3,33.2,29.85,East,86,7.0,13.0,92,0.07,,,0.26,LWC V2.10 B1702,2013-03-07 10:57:00,
2013-03-07 06:02:00,35.3,33.2,29.85,NNW,346,11.0,12.0,92,0.07,,,0.26,LWC V2.10 B1702,2013-03-07 11:02:00,
2013-03-07 06:07:00,35.3,33.2,29.84,NNW,336,4.0,9.0,92,0.06,,,0.27,LWC V2.10 B1702,2013-03-07 11:07:00,
2013-03-07 06:12:00,35.3,33.2,29.84,East,82,8.0,9.0,92,0.06,,,0.27,LWC V2.10 B1702,2013-03-07 11:12:00,
2013-03-07 06:17:00,35.3,33.2,29.84,ENE,59,7.0,12.0,92,0.06,,,0.28,LWC V2.10 B1702,2013-03-07 11:17:00,
2013-03-07 06:22:00,35.3,33.2,29.85,ESE,110,10.0,14.0,92,0.06,,,0.28,LWC V2.10 B1702,2013-03-07 11:22:00,
2013-03-07 06:27:00,35.2,33.1,29.84,NE,38,7.0,19.0,92,0.07,,,0.29,LWC V2.10 B1702,2013-03-07 11:27:00,
2013-03-07 06:32:00,35.3,33.2,29.84,ESE,112,2.0,11.0,92,0.09,,,0.30,LWC V2.10 B1702,2013-03-07 11:32:00,
2013-03-07 06:37:00,35.3,33.2,29.84,North,355,7.0,14.0,92,0.09,,,0.30,LWC V2.10 B1702,2013-03-07 11:37:00,
2013-03-07 06:42:00,35.3,33.2,29.84,ENE,67,5.0,10.0,92,0.08,,,0.31,LWC V2.10 B1702,2013-03-07 11:42:00,
2013-03-07 06:47:00,35.3,33.2,29.84,ENE,65,5.0,12.0,92,0.08,,,0.32,LWC V2.10 B1702,2013-03-07 11:47:00,
2013-03-07 06:52:00,35.5,33.4,29.84,North,5,8.0,14.0,92,0.08,,,0.32,LWC V2.10 B1702,2013-03-07 11:52:00,
2013-03-07 06:57:00,35.6,33.5,29.85,NE,35,2.0,14.0,92,0.08,,,0.33,LWC V2.10 B1702,2013-03-07 11:57:00,
2013-03-07 07:02:00,35.8,33.7,29.85,East,88,5.0,10.0,92,0.09,,,0.34,LWC V2.10 B1702,2013-03-07 12:02:00,
2013-03-07 07:07:00,35.9,34.1,29.85,WSW,248,7.0,11.0,93,0.09,,,0.34,LWC V2.10 B1702,2013-03-07 12:07:00,
2013-03-07 07:12:00,36.1,34.0,29.85,ESE,107,4.0,12.0,92,0.08,,,0.35,LWC V2.10 B1702,2013-03-07 12:12:00,
2013-03-07 07:17:00,36.2,34.1,29.85,North,5,11.0,15.0,92,0.08,,,0.36,LWC V2.10 B1702,2013-03-07 12:17:00,
2013-03-07 07:22:00,36.3,34.2,29.85,ENE,65,11.0,11.0,92,0.08,,,0.36,LWC V2.10 B1702,2013-03-07 12:22:00,
2013-03-07 07:27:00,36.3,34.2,29.85,NE,39,3.0,17.0,92,0.08,,,0.37,LWC V2.10 B1702,2013-03-07 12:27:00,
2013-03-07 07:32:00,36.2,34.1,29.85,ENE,61,10.0,17.0,92,0.10,,,0.38,LWC V2.10 B1702,2013-03-07 12:32:00,
2013-03-07 07:37:00,36.3,34.2,29.86,ESE,120,2.0,13.0,92,0.08,,,0.39,LWC V2.10 B1702,2013-03-07 12:37:00,
2013-03-07 07:42:00,36.4,34.3,29.85,ENE,67,4.0,13.0,92,0.08,,,0.39,LWC V2.10 B1702,2013-03-07 12:42:00,
2013-03-07 07:47:00,36.5,34.4,29.86,ENE,67,5.0,7.0,92,0.09,,,0.40,LWC V2.10 B1702,2013-03-07 12:47:00,
2013-03-07 07:52:00,36.6,34.5,29.85,East,80,6.0,13.0,92,0.07,,,0.40,LWC V2.10 B1702,2013-03-07 12:52:00,
2013-03-07 07:57:00,36.6,34.5,29.85,East,99,9.0,10.0,92,0.07,,,0.41,LWC V2.10 B1702,2013-03-07 12:57:00,
2013-03-07 08:02:00,36.5,34.4,29.86,East,98,7.0,10.0,92,0.09,,,0.42,LWC V2.10 B1702,2013-03-07 13:02:00,
2013-03-07 08:07:00,36.6,34.5,29.85,ENE,70,4.0,16.0,92,0.09,,,0.43,LWC V2.10 B1702,2013-03-07 13:07:00,
2013-03-07 08:12:00,36.7,34.6,29.86,NNE,19,7.0,8.0,92,0.09,,,0.43,LWC V2.10 B1702,2013-03-07 13:12:00,
2013-03-07 08:17:00,36.8,34.7,29.86,ENE,73,13.0,17.0,92,0.10,,,0.44,LWC V2.10 B1702,2013-03-07 13:17:00,
2013-03-07 08:22:00,36.8,34.7,29.85,NE,45,6.0,14.0,92,0.08,,,0.45,LWC V2.10 B1702,2013-03-07 13:22:00,
2013-03-07 08:27:00,36.8,34.7,29.85,ENE,58,5.0,9.0,92,0.08,,,0.46,LWC V2.10 B1702,2013-03-07 13:27:00,
2013-03-07 08:32:00,36.8,34.7,29.85,East,88,11.0,15.0,92,0.08,,,0.46,LWC V2.10 B1702,2013-03-07 13:32:00,
2013-03-07 08:37:00,36.8,34.7,29.85,East,83,0.0,9.0,92,0.08,,,0.47,LWC V2.10 B1702,2013-03-07 13:37:00,
2013-03-07 08:42:00,36.8,34.7,29.85,North,5,4.0,19.0,92,0.08,,,0.47,LWC V2.10 B1702,2013-03-07 13:42:00,
2013-03-07 08:47:00,36.9,34.8,29.85,ENE,62,10.0,18.0,92,0.07,,,0.48,LWC V2.10 B1702,2013-03-07 13:47:00,
2013-03-07 08:52:00,36.9,34.8,29.85,North,0,6.0,14.0,92,0.07,,,0.48,LWC V2.10 B1702,2013-03-07 13:52:00,
2013-03-07 08:57:00,37.0,34.9,29.85,NNE,24,12.0,18.0,92,0.05,,,0.49,LWC V2.10 B1702,2013-03-07 13:57:00,
2013-03-07 09:02:00,37.1,35.0,29.85,NNE,31,3.0,13.0,92,0.05,,,0.49,LWC V2.10 B1702,2013-03-07 14:02:00,
2013-03-07 09:07:00,37.2,35.1,29.85,NE,55,2.0,12.0,92,0.05,,,0.49,LWC V2.10 B1702,2013-03-07 14:07:00,
2013-03-07 09:12:00,37.2,35.1,29.85,NE,36,5.0,10.0,92,0.04,,,0.50,LWC V2.10 B1702,2013-03-07 14:12:00,
2013-03-07 09:17:00,37.2,35.1,29.85,ENE,70,13.0,13.0,92,0.04,,,0.50,LWC V2.10 B1702,2013-03-07 14:17:00,
2013-03-07 09:22:00,37.2,35.1,29.85,ENE,78,5.0,10.0,92,0.06,,,0.51,LWC V2.10 B1702,2013-03-07 14:22:00,
2013-03-07 09:27:00,37.2,35.1,29.85,NNE,26,3.0,21.0,92,0.07,,,0.52,LWC V2.10 B1702,2013-03-07 14:27:00,
2013-03-07 09:32:00,37.1,35.0,29.85,ENE,60,9.0,9.0,92,0.07,,,0.52,LWC V2.10 B1702,2013-03-07 14:32:00,
2013-03-07 09:37:00,37.0,34.9,29.85,NE,44,4.0,17.0,92,0.06,,,0.53,LWC V2.10 B1702,2013-03-07 14:37:00,
2013-03-07 09:42:00,37.0,34.9,29.84,NE,54,9.0,18.0,92,0.06,,,0.53,LWC V2.10 B1702,2013-03-07 14:42:00,
2013-03-07 09:47:00,37.0,34.9,29.85,NNE,32,9.0,14.0,92,0.06,,,0.53,LWC V2.10 B1702,2013-03-07 14:47:00,
2013-03-07 09:52:00,37.0,34.9,29.85,East,88,7.0,14.0,92,0.06,,,0.54,LWC V2.10 B1702,2013-03-07 14:52:00,
2013-03-07 09:57:00,37.0,34.9,29.85,East,86,7.0,11.0,92,0.06,,,0.54,LWC V2.10 B1702,2013-03-07 14:57:00,
2013-03-07 10:02:00,37.1,35.0,29.85,ENE,61,10.0,15.0,92,0.06,,,0.55,LWC V2.10 B1702,2013-03-07 15:02:00,
2013-03-07 10:07:00,37.1,35.0,29.85,East,95,5.0,16.0,92,0.06,,,0.55,LWC V2.10 B1702,2013-03-07 15:07:00,
2013-03-07 10:12:00,37.1,35.0,29.84,East,80,5.0,17.0,92,0.06,,,0.56,LWC V2.10 B1702,2013-03-07 15:12:00,
2013-03-07 10:17:00,37.2,35.1,29.84,NNW,348,6.0,13.0,92,0.06,,,0.56,LWC V2.10 B1702,2013-03-07 15:17:00,
2013-03-07 10:22:00,37.3,35.2,29.84,East,98,15.0,18.0,92,0.05,,,0.57,LWC V2.10 B1702,2013-03-07 15:22:00,
2013-03-07 10:27:00,37.3,35.2,29.85,East,90,7.0,13.0,92,0.05,,,0.57,LWC V2.10 B1702,2013-03-07 15:27:00,
2013-03-07 10:32:00,37.4,35.3,29.85,NNE,24,12.0,24.0,92,0.05,,,0.57,LWC V2.10 B1702,2013-03-07 15:32:00,
2013-03-07 10:37:00,37.4,35.3,29.85,East,79,13.0,15.0,92,0.04,,,0.57,LWC V2.10 B1702,2013-03-07 15:37:00,
2013-03-07 10:42:00,37.4,35.3,29.85,NE,44,5.0,8.0,92,0.00,,,0.58,LWC V2.10 B1702,2013-03-07 15:42:00,
2013-03-07 10:47:00,37.5,35.4,29.85,East,87,5.0,23.0,92,0.00,,,0.58,LWC V2.10 B1702,2013-03-07 15:47:00,
2013-03-07 10:52:00,37.6,35.5,29.85,East,91,3.0,7.0,92,0.06,,,0.59,LWC V2.10 B1702,2013-03-07 15:52:00,
2013-03-07 10:57:00,37.5,35.4,29.85,ENE,69,2.0,14.0,92,0.09,,,0.60,LWC V2.10 B1702,2013-03-07 15:57:00,
2013-03-07 11:02:00,37.5,35.4,29.85,NE,44,8.0,18.0,92,0.09,,,0.60,LWC V2.10 B1702,2013-03-07 16:02:00,
2013-03-07 11:07:00,37.4,35.3,29.85,NNE,31,8.0,16.0,92,0.08,,,0.61,LWC V2.10 B1702,2013-03-07 16:07:00,
2013-03-07 11:12:00,37.3,34.9,29.85,ENE,69,8.0,22.0,91,0.08,,,0.62,LWC V2.10 B1702,2013-03-07 16:12:00,
2013-03-07 11:18:00,37.3,34.9,29.85,NE,51,12.0,18.0,91,0.08,,,0.62,LWC V2.10 B1702,2013-03-07 16:18:00,
2013-03-07 11:23:00,37.2,34.8,29.85,ESE,117,5.0,9.0,91,0.08,,,0.63,LWC V2.10 B1702,2013-03-07 16:23:00,
2013-03-07 11:28:00,37.1,34.7,29.85,ESE,107,2.0,19.0,91,0.09,,,0.64,LWC V2.10 B1702,2013-03-07 16:28:00,
2013-03-07 11:33:00,37.0,34.6,29.85,NE,36,5.0,5.0,91,0.10,,,0.65,LWC V2.10 B1702,2013-03-07 16:33:00,
2013-03-07 11:38:00,36.9,34.8,29.85,ESE,109,4.0,11.0,92,0.12,,,0.66,LWC V2.10 B1702,2013-03-07 16:38:00,
2013-03-07 11:43:00,36.8,34.7,29.85,ESE,111,5.0,11.0,92,0.11,,,0.67,LWC V2.10 B1702,2013-03-07 16:43:00,
2013-03-07 11:48:00,36.7,34.6,29.85,East,90,6.0,18.0,92,0.11,,,0.67,LWC V2.10 B1702,2013-03-07 16:48:00,
2013-03-07 11:53:00,36.7,34.6,29.85,ENE,61,12.0,18.0,92,0.09,,,0.68,LWC V2.10 B1702,2013-03-07 16:53:00,
2013-03-07 11:58:00,36.8,34.7,29.85,SSE,150,3.0,8.0,92,0.09,,,0.69,LWC V2.10 B1702,2013-03-07 16:58:00,
2013-03-07 12:03:00,36.9,34.8,29.85,ENE,73,7.0,9.0,92,0.08,,,0.69,LWC V2.10 B1702,2013-03-07 17:03:00,
2013-03-07 12:08:00,37.0,34.9,29.85,East,85,10.0,15.0,92,0.07,,,0.70,LWC V2.10 B1702,2013-03-07 17:08:00,
2013-03-07 12:13:00,37.2,35.1,29.85,ENE,72,10.0,10.0,92,0.06,,,0.70,LWC V2.10 B1702,2013-03-07 17:13:00,
2013-03-07 12:18:00,37.5,35.4,29.84,NE,48,11.0,24.0,92,0.05,,,0.71,LWC V2.10 B1702,2013-03-07 17:18:00,
2013-03-07 12:23:00,37.7,35.6,29.85,East,88,5.0,13.0,92,0.05,,,0.71,LWC V2.10 B1702,2013-03-07 17:23:00,
2013-03-07 12:28:00,37.8,35.7,29.84,ENE,66,7.0,14.0,92,0.05,,,0.71,LWC V2.10 B1702,2013-03-07 17:28:00,
2013-03-07 12:33:00,37.8,35.7,29.84,NNE,17,1.0,16.0,92,0.04,,,0.72,LWC V2.10 B1702,2013-03-07 17:33:00,
2013-03-07 12:38:00,37.7,35.6,29.85,NNE,24,6.0,20.0,92,0.04,,,0.72,LWC V2.10 B1702,2013-03-07 17:38:00,
2013-03-07 12:43:00,37.7,35.3,29.85,NNE,28,9.0,9.0,91,0.04,,,0.72,LWC V2.10 B1702,2013-03-07 17:43:00,
2013-03-07 12:48:00,37.8,35.7,29.84,ENE,77,5.0,9.0,92,0.04,,,0.72,LWC V2.10 B1702,2013-03-07 17:48:00,
2013-03-07 12:53:00,37.8,35.7,29.84,East,84,6.0,14.0,92,0.00,,,0.73,LWC V2.10 B1702,2013-03-07 17:53:00,
2013-03-07 12:58:00,37.7,35.3,29.84,SE,126,1.0,7.0,91,0.00,,,0.73,LWC V2.10 B1702,2013-03-07 17:58:00,
2013-03-07 13:03:00,37.4,35.0,29.84,ENE,61,10.0,17.0,91,0.00,,,0.73,LWC V2.10 B1702,2013-03-07 18:03:00,
2013-03-07 13:08:00,37.2,34.8,29.84,NE,44,11.0,11.0,91,0.05,,,0.74,LWC V2.10 B1702,2013-03-07 18:08:00,
2013-03-07 13:13:00,37.1,34.7,29.84,ESE,113,7.0,9.0,91,0.05,,,0.74,LWC V2.10 B1702,2013-03-07 18:13:00,
2013-03-07 13:18:00,37.0,34.6,29.84,NNE,32,16.0,16.0,91,0.05,,,0.75,LWC V2.10 B1702,2013-03-07 18:18:00,
2013-03-07 13:23:00,37.0,34.6,29.84,NNE,30,6.0,13.0,91,0.05,,,0.75,LWC V2.10 B1702,2013-03-07 18:23:00,
2013-03-07 13:28:00,37.0,34.6,29.84,ENE,78,9.0,16.0,91,0.05,,,0.75,LWC V2.10 B1702,2013-03-07 18:28:00,
2013-03-07 13:33:00,37.0,34.9,29.84,East,95,8.0,15.0,92,0.04,,,0.76,LWC V2.10 B1702,2013-03-07 18:33:00,
2013-03-07 13:38:00,37.0,34.6,29.84,ENE,69,7.0,9.0,91,0.04,,,0.76,LWC V2.10 B1702,2013-03-07 18:38:00,
2013-03-07 13:43:00,36.9,34.5,29.84,East,95,2.0,20.0,91,0.04,,,0.76,LWC V2.10 B1702,2013-03-07 18:43:00,
2013-03-07 13:48:00,36.8,34.4,29.85,ESE,105,10.0,15.0,91,0.04,,,0.77,LWC V2.10 B1702,2013-03-07 18:48:00,
2013-03-07 13:53:00,36.7,34.3,29.85,NE,41,5.0,15.0,91,0.04,,,0.77,LWC V2.10 B1702,2013-03-07 18:53:00,
2013-03-07 13:58:00,36.5,34.1,29.84,NNE,24,6.0,11.0,91,0.06,,,0.78,LWC V2.10 B1702,2013-03-07 18:58:00,
2013-03-07 14:03:00,36.5,34.1,29.84,ENE,76,3.0,9.0,91,0.06,,,0.78,LWC V2.10 B1702,2013-03-07 19:03:00,
2013-03-07 14:08:00,36.5,34.1,29.84,NE,38,4.0,13.0,91,0.05,,,0.78,LWC V2.10 B1702,2013-03-07 19:08:00,
2013-03-07 14:13:00,36.5,34.1,29.84,East,84,13.0,13.0,91,0.04,,,0.78,LWC V2.10 B1702,2013-03-07 19:13:00,
2013-03-07 14:18:00,36.5,34.4,29.84,NNE,32,11.0,15.0,92,0.00,,,0.79,LWC V2.10 B1702,2013-03-07 19:18:00,
2013-03-07 14:23:00,36.4,34.0,29.84,NE,49,8.0,20.0,91,0.00,,,0.79,LWC V2.10 B1702,2013-03-07 19:23:00,
2013-03-07 14:26:00,36.4,34.0,29.84,NE,49,14.0,16.0,91,0.00,,,0.79,LWC V2.10 B1702,2013-03-07 19:26:00,
2013-03-07 14:31:00,36.4,34.3,29.85,NE,43,4.0,10.0,92,0.04,,,0.80,LWC V2.10 B1702,2013-03-07 19:31:00,
2013-03-07 14:36:00,36.3,34.2,29.85,ESE,105,8.0,13.0,92,0.04,,,0.80,LWC V2.10 B1702,2013-03-07 19:36:00,
2013-03-07 14:41:00,36.3,33.9,29.85,NE,35,9.0,19.0,91,0.04,,,0.80,LWC V2.10 B1702,2013-03-07 19:41:00,
2013-03-07 14:46:00,36.2,33.8,29.85,NNE,24,2.0,16.0,91,0.04,,,0.81,LWC V2.10 B1702,2013-03-07 19:46:00,
2013-03-07 14:51:00,36.1,33.7,29.84,ESE,108,7.0,10.0,91,0.04,,,0.81,LWC V2.10 B1702,2013-03-07 19:51:00,
2013-03-07 14:56:00,36.0,33.6,29.84,NNE,26,6.0,9.0,91,0.05,,,0.82,LWC V2.10 B1702,2013-03-07 19:56:00,
2013-03-07 15:01:00,36.0,33.6,29.84,South,169,4.0,23.0,91,0.05,,,0.82,LWC V2.10 B1702,2013-03-07 20:01:00,
2013-03-07 15:06:00,36.0,33.6,29.85,ENE,68,8.0,13.0,91,0.05,,,0.82,LWC V2.10 B1702,2013-03-07 20:06:00,
2013-03-07 15:11:00,35.9,33.5,29.85,ENE,77,8.0,16.0,91,0.04,,,0.82,LWC V2.10 B1702,2013-03-07 20:11:00,
2013-03-07 15:16:00,35.9,33.5,29.85,ENE,60,9.0,11.0,91,0.04,,,0.83,LWC V2.10 B1702,2013-03-07 20:16:00,
2013-03-07 15:21:00,35.9,33.5,29.85,North,11,7.0,15.0,91,0.04,,,0.83,LWC V2.10 B1702,2013-03-07 20:21:00,
2013-03-07 15:26:00,35.9,33.5,29.85,NE,49,10.0,13.0,91,0.04,,,0.83,LWC V2.10 B1702,2013-03-07 20:26:00,
2013-03-07 15:31:00,35.9,33.5,29.85,NNE,24,10.0,16.0,91,0.04,,,0.84,LWC V2.10 B1702,2013-03-07 20:31:00,
2013-03-07 15:36:00,35.9,33.5,29.85,East,90,6.0,10.0,91,0.04,,,0.84,LWC V2.10 B1702,2013-03-07 20:36:00,
2013-03-07 15:41:00,35.8,33.7,29.85,ENE,77,8.0,18.0,92,0.04,,,0.84,LWC V2.10 B1702,2013-03-07 20:41:00,
2013-03-07 15:46:00,35.9,33.8,29.85,ESE,122,2.0,14.0,92,0.00,,,0.85,LWC V2.10 B1702,2013-03-07 20:46:00,
2013-03-07 15:51:00,35.8,33.7,29.85,North,9,9.0,15.0,92,0.00,,,0.85,LWC V2.10 B1702,2013-03-07 20:51:00,
2013-03-07 15:56:00,35.8,33.7,29.85,East,91,7.0,16.0,92,0.00,,,0.85,LWC V2.10 B1702,2013-03-07 20:56:00,
2013-03-07 16:01:00,35.6,33.5,29.85,NNE,26,6.0,13.0,92,0.00,,,0.85,LWC V2.10 B1702,2013-03-07 21:01:00,
2013-03-07 16:06:00,35.6,33.5,29.85,NE,38,6.0,10.0,92,0.00,,,0.85,LWC V2.10 B1702,2013-03-07 21:06:00,
2013-03-07 16:11:00,35.5,33.4,29.85,NE,40,7.0,11.0,92,0.00,,,0.86,LWC V2.10 B1702,2013-03-07 21:11:00,
2013-03-07 16:16:00,35.4,33.3,29.85,ENE,69,9.0,14.0,92,0.00,,,0.86,LWC V2.10 B1702,2013-03-07 21:16:00,
2013-03-07 16:21:00,35.3,33.2,29.85,NE,44,6.0,21.0,92,0.00,,,0.86,LWC V2.10 B1702,2013-03-07 21:21:00,
2013-03-07 16:26:00,35.2,33.1,29.85,East,101,10.0,13.0,92,0.00,,,0.86,LWC V2.10 B1702,2013-03-07 21:26:00,
2013-03-07 16:31:00,35.1,33.0,29.85,NE,39,8.0,14.0,92,0.00,,,0.87,LWC V2.10 B1702,2013-03-07 21:31:00,
2013-03-07 16:36:00,35.1,33.0,29.85,East,84,5.0,12.0,92,0.00,,,0.87,LWC V2.10 B1702,2013-03-07 21:36:00,
2013-03-07 16:41:00,35.0,32.9,29.86,NNE,17,6.0,9.0,92,0.00,,,0.87,LWC V2.10 B1702,2013-03-07 21:41:00,
2013-03-07 16:46:00,34.9,32.8,29.86,NE,55,10.0,13.0,92,0.00,,,0.87,LWC V2.10 B1702,2013-03-07 21:46:00,
2013-03-07 16:51:00,34.8,32.7,29.86,ENE,57,4.0,16.0,92,0.00,,,0.88,LWC V2.10 B1702,2013-03-07 21:51:00,
2013-03-07 16:56:00,34.8,32.7,29.86,NE,49,6.0,6.0,92,0.00,,,0.88,LWC V2.10 B1702,2013-03-07 21:56:00,
2013-03-07 17:01:00,34.8,32.7,29.86,ENE,71,7.0,15.0,92,0.00,,,0.88,LWC V2.10 B1702,2013-03-07 22:01:00,
2013-03-07 17:06:00,34.8,32.7,29.86,NNE,26,9.0,13.0,92,0.04,,,0.89,LWC V2.10 B1702,2013-03-07 22:06:00,
2013-03-07 17:11:00,34.7,32.6,29.87,East,88,9.0,15.0,92,0.04,,,0.89,LWC V2.10 B1702,2013-03-07 22:11:00,
2013-03-07 17:16:00,34.6,32.5,29.87,North,355,7.0,24.0,92,0.04,,,0.89,LWC V2.10 B1702,2013-03-07 22:16:00,
2013-03-07 17:21:00,34.6,32.5,29.87,East,92,7.0,12.0,92,0.00,,,0.89,LWC V2.10 B1702,2013-03-07 22:21:00,
2013-03-07 17:26:00,34.6,32.5,29.87,NNW,331,4.0,17.0,92,0.00,,,0.90,LWC V2.10 B1702,2013-03-07 22:26:00,
2013-03-07 17:31:00,34.6,32.5,29.86,NNE,14,5.0,18.0,92,0.00,,,0.90,LWC V2.10 B1702,2013-03-07 22:31:00,
2013-03-07 17:36:00,34.6,32.5,29.87,North,355,6.0,12.0,92,0.00,,,0.90,LWC V2.10 B1702,2013-03-07 22:36:00,
2013-03-07 17:41:00,34.6,32.5,29.87,NNE,16,7.0,12.0,92,0.00,,,0.91,LWC V2.10 B1702,2013-03-07 22:41:00,
2013-03-07 17:46:00,34.6,32.5,29.87,North,11,6.0,12.0,92,0.00,,,0.91,LWC V2.10 B1702,2013-03-07 22:46:00,
2013-03-07 17:51:00,34.5,32.4,29.87,ENE,61,4.0,7.0,92,0.00,,,0.91,LWC V2.10 B1702,2013-03-07 22:51:00,
2013-03-07 17:56:00,34.4,32.3,29.87,East,85,6.0,17.0,92,0.00,,,0.91,LWC V2.10 B1702,2013-03-07 22:56:00,
2013-03-07 18:01:00,34.4,32.3,29.88,ENE,71,4.0,16.0,92,0.00,,,0.92,LWC V2.10 B1702,2013-03-07 23:01:00,
2013-03-07 18:06:00,34.4,32.3,29.87,ENE,78,1.0,4.0,92,0.00,,,0.92,LWC V2.10 B1702,2013-03-07 23:06:00,
2013-03-07 18:11:00,34.5,32.4,29.87,NE,56,3.0,7.0,92,0.00,,,0.92,LWC V2.10 B1702,2013-03-07 23:11:00,
2013-03-07 18:16:00,34.8,33.0,29.87,ENE,69,8.0,9.0,93,0.00,,,0.93,LWC V2.10 B1702,2013-03-07 23:16:00,
2013-03-07 18:21:00,35.1,33.3,29.87,NE,36,3.0,11.0,93,0.00,,,0.93,LWC V2.10 B1702,2013-03-07 23:21:00,
2013-03-07 18:26:00,35.1,33.3,29.87,NE,56,0.0,9.0,93,0.06,,,0.94,LWC V2.10 B1702,2013-03-07 23:26:00,
2013-03-07 18:31:00,35.0,33.2,29.87,East,94,3.0,19.0,93,0.06,,,0.94,LWC V2.10 B1702,2013-03-07 23:31:00,
2013-03-07 18:36:00,35.0,33.2,29.88,NE,51,6.0,14.0,93,0.06,,,0.95,LWC V2.10 B1702,2013-03-07 23:36:00,
2013-03-07 18:41:00,35.1,33.3,29.88,NE,40,14.0,14.0,93,0.06,,,0.95,LWC V2.10 B1702,2013-03-07 23:41:00,
2013-03-07 18:46:00,35.3,33.5,29.88,NE,43,11.0,11.0,93,0.08,,,0.96,LWC V2.10 B1702,2013-03-07 23:46:00,
2013-03-07 18:51:00,35.5,33.7,29.88,NE,45,10.0,11.0,93,0.08,,,0.97,LWC V2.10 B1702,2013-03-07 23:51:00,
2013-03-07 18:56:00,35.5,33.7,29.88,ENE,59,7.0,12.0,93,0.08,,,0.97,LWC V2.10 B1702,2013-03-07 23:56:00,
2013-03-07 19:01:00,35.4,33.6,29.88,NE,38,12.0,15.0,93,0.07,,,0.98,LWC V2.10 B1702,2013-03-08 00:01:00,
2013-03-07 19:06:00,35.3,33.2,29.88,North,5,3.0,11.0,92,0.07,,,0.98,LWC V2.10 B1702,2013-03-08 00:06:00,
2013-03-07 19:11:00,35.2,33.1,29.88,NNE,24,12.0,14.0,92,0.06,,,0.99,LWC V2.10 B1702,2013-03-08 00:11:00,
2013-03-07 19:16:00,35.1,33.0,29.88,ESE,121,3.0,18.0,92,0.06,,,0.99,LWC V2.10 B1702,2013-03-08 00:16:00,
2013-03-07 19:21:00,35.0,32.9,29.88,NNE,24,6.0,15.0,92,0.06,,,1.00,LWC V2.10 B1702,2013-03-08 00:21:00,
2013-03-07 19:26:00,35.0,32.9,29.88,NE,43,9.0,16.0,92,0.06,,,1.00,LWC V2.10 B1702,2013-03-08 00:26:00,
2013-03-07 19:31:00,34.9,32.8,29.88,East,87,7.0,13.0,92,0.05,,,1.00,LWC V2.10 B1702,2013-03-08 00:31:00,
2013-03-07 19:36:00,34.8,32.7,29.88,NNE,12,19.0,19.0,92,0.05,,,1.01,LWC V2.10 B1702,2013-03-08 00:36:00,
2013-03-07 19:41:00,34.8,32.7,29.88,ESE,110,3.0,11.0,92,0.05,,,1.01,LWC V2.10 B1702,2013-03-08 00:41:00,
2013-03-07 19:46:00,34.7,32.6,29.88,ENE,67,9.0,9.0,92,0.04,,,1.02,LWC V2.10 B1702,2013-03-08 00:46:00,
2013-03-07 19:51:00,34.7,32.6,29.88,NNE,26,7.0,14.0,92,0.04,,,1.02,LWC V2.10 B1702,2013-03-08 00:51:00,
2013-03-07 19:56:00,34.7,32.6,29.88,NNW,344,4.0,8.0,92,0.04,,,1.02,LWC V2.10 B1702,2013-03-08 00:56:00,
2013-03-07 20:01:00,34.6,32.5,29.88,ENE,58,0.0,7.0,92,0.04,,,1.02,LWC V2.10 B1702,2013-03-08 01:01:00,
2013-03-07 20:06:00,34.7,32.6,29.88,ENE,75,7.0,13.0,92,0.00,,,1.03,LWC V2.10 B1702,2013-03-08 01:06:00,
2013-03-07 20:11:00,34.7,32.6,29.88,NNE,31,15.0,18.0,92,0.00,,,1.03,LWC V2.10 B1702,2013-03-08 01:11:00,
2013-03-07 20:16:00,34.7,32.6,29.87,NNE,13,7.0,13.0,92,0.00,,,1.03,LWC V2.10 B1702,2013-03-08 01:16:00,
2013-03-07 20:21:00,34.7,32.6,29.87,North,5,6.0,8.0,92,0.04,,,1.04,LWC V2.10 B1702,2013-03-08 01:21:00,
2013-03-07 20:27:00,34.7,32.6,29.87,NE,35,6.0,11.0,92,0.04,,,1.04,LWC V2.10 B1702,2013-03-08 01:27:00,
2013-03-07 20:32:00,34.7,32.6,29.87,North,5,17.0,17.0,92,0.04,,,1.04,LWC V2.10 B1702,2013-03-08 01:32:00,
2013-03-07 20:37:00,34.7,32.6,29.86,ENE,73,8.0,17.0,92,0.04,,,1.04,LWC V2.10 B1702,2013-03-08 01:37:00,
2013-03-07 20:42:00,34.7,32.9,29.86,NNE,31,8.0,14.0,93,0.00,,,1.04,LWC V2.10 B1702,2013-03-08 01:42:00,
2013-03-07 20:47:00,34.7,32.6,29.86,North,10,6.0,6.0,92,0.00,,,1.05,LWC V2.10 B1702,2013-03-08 01:47:00,
2013-03-07 20:52:00,34.6,32.5,29.86,NE,46,2.0,10.0,92,0.00,,,1.05,LWC V2.10 B1702,2013-03-08 01:52:00,
2013-03-07 20:57:00,34.6,32.5,29.86,NE,39,6.0,13.0,92,0.00,,,1.05,LWC V2.10 B1702,2013-03-08 01:57:00,
2013-03-07 21:02:00,34.6,32.5,29.86,ENE,78,11.0,14.0,92,0.00,,,1.05,LWC V2.10 B1702,2013-03-08 02:02:00,
2013-03-07 21:07:00,34.7,32.6,29.86,East,85,5.0,15.0,92,0.00,,,1.06,LWC V2.10 B1702,2013-03-08 02:07:00,
2013-03-07 21:12:00,34.8,33.0,29.86,NNE,31,13.0,13.0,93,0.00,,,1.06,LWC V2.10 B1702,2013-03-08 02:12:00,
2013-03-07 21:17:00,34.9,33.1,29.86,NNE,29,8.0,16.0,93,0.00,,,1.06,LWC V2.10 B1702,2013-03-08 02:17:00,
2013-03-07 21:22:00,35.1,33.3,29.87,NE,49,9.0,14.0,93,0.04,,,1.07,LWC V2.10 B1702,2013-03-08 02:22:00,
2013-03-07 21:27:00,35.2,33.4,29.86,SE,130,7.0,19.0,93,0.04,,,1.07,LWC V2.10 B1702,2013-03-08 02:27:00,
2013-03-07 21:32:00,35.2,33.4,29.86,ENE,74,2.0,13.0,93,0.04,,,1.07,LWC V2.10 B1702,2013-03-08 02:32:00,
2013-03-07 21:37:00,35.2,33.1,29.86,North,10,11.0,11.0,92,0.04,,,1.08,LWC V2.10 B1702,2013-03-08 02:37:00,
2013-03-07 21:42:00,35.2,33.1,29.86,NNE,33,1.0,17.0,92,0.04,,,1.08,LWC V2.10 B1702,2013-03-08 02:42:00,
2013-03-07 21:47:00,35.1,33.0,29.86,NNE,12,17.0,17.0,92,0.04,,,1.08,LWC V2.10 B1702,2013-03-08 02:47:00,
2013-03-07 21:52:00,35.1,33.0,29.86,East,90,7.0,14.0,92,0.04,,,1.09,LWC V2.10 B1702,2013-03-08 02:52:00,
2013-03-07 21:57:00,35.0,32.9,29.86,East,80,8.0,16.0,92,0.04,,,1.09,LWC V2.10 B1702,2013-03-08 02:57:00,
2013-03-07 22:02:00,35.1,33.0,29.86,NNE,13,4.0,12.0,92,0.04,,,1.09,LWC V2.10 B1702,2013-03-08 03:02:00,
2013-03-07 22:07:00,35.1,33.0,29.86,NE,40,5.0,16.0,92,0.04,,,1.10,LWC V2.10 B1702,2013-03-08 03:07:00,
2013-03-07 22:12:00,35.1,33.0,29.86,ENE,66,10.0,11.0,92,0.04,,,1.10,LWC V2.10 B1702,2013-03-08 03:12:00,
2013-03-07 22:17:00,35.2,33.1,29.86,NNE,18,4.0,15.0,92,0.04,,,1.10,LWC V2.10 B1702,2013-03-08 03:17:00,
2013-03-07 22:22:00,35.2,33.1,29.86,East,97,2.0,12.0,92,0.04,,,1.11,LWC V2.10 B1702,2013-03-08 03:22:00,
2013-03-07 22:27:00,35.2,33.1,29.86,ENE,59,5.0,14.0,92,0.04,,,1.11,LWC V2.10 B1702,2013-03-08 03:27:00,
2013-03-07 22:32:00,35.1,33.0,29.86,North,5,2.0,17.0,92,0.04,,,1.11,LWC V2.10 B1702,2013-03-08 03:32:00,
2013-03-07 22:37:00,35.1,33.0,29.86,North,5,4.0,10.0,92,0.04,,,1.12,LWC V2.10 B1702,2013-03-08 03:37:00,
2013-03-07 22:42:00,35.1,33.0,29.86,NE,38,7.0,13.0,92,0.04,,,1.12,LWC V2.10 B1702,2013-03-08 03:42:00,
2013-03-07 22:47:00,35.2,33.1,29.86,NE,45,10.0,17.0,92,0.04,,,1.12,LWC V2.10 B1702,2013-03-08 03:47:00,
2013-03-07 22:52:00,35.2,33.1,29.85,East,86,5.0,5.0,92,0.04,,,1.13,LWC V2.10 B1702,2013-03-08 03:52:00,
2013-03-07 22:57:00,35.2,33.1,29.85,NE,41,4.0,13.0,92,0.04,,,1.13,LWC V2.10 B1702,2013-03-08 03:57:00,
2013-03-07 23:02:00,35.3,33.2,29.85,ENE,59,5.0,12.0,92,0.04,,,1.13,LWC V2.10 B1702,2013-03-08 04:02:00,
2013-03-07 23:07:00,35.3,33.2,29.85,East,80,6.0,13.0,92,0.04,,,1.14,LWC V2.10 B1702,2013-03-08 04:07:00,
2013-03-07 23:12:00,35.4,33.3,29.85,North,5,12.0,15.0,92,0.04,,,1.14,LWC V2.10 B1702,2013-03-08 04:12:00,
2013-03-07 23:17:00,35.3,33.2,29.85,NE,40,1.0,14.0,92,0.04,,,1.14,LWC V2.10 B1702,2013-03-08 04:17:00,
2013-03-07 23:22:00,35.2,33.1,29.85,NNE,23,8.0,15.0,92,0.04,,,1.14,LWC V2.10 B1702,2013-03-08 04:22:00,
2013-03-07 23:27:00,35.2,33.1,29.85,ENE,71,12.0,17.0,92,0.00,,,1.15,LWC V2.10 B1702,2013-03-08 04:27:00,
2013-03-07 23:32:00,35.1,33.0,29.85,ENE,57,4.0,8.0,92,0.00,,,1.15,LWC V2.10 B1702,2013-03-08 04:32:00,
2013-03-07 23:37:00,35.0,32.9,29.85,East,98,8.0,15.0,92,0.00,,,1.15,LWC V2.10 B1702,2013-03-08 04:37:00,
2013-03-07 23:42:00,35.0,32.9,29.84,ENE,69,3.0,14.0,92,0.04,,,1.16,LWC V2.10 B1702,2013-03-08 04:42:00,
2013-03-07 23:47:00,34.9,32.8,29.84,NE,36,4.0,14.0,92,0.04,,,1.16,LWC V2.10 B1702,2013-03-08 04:47:00,
2013-03-07 23:52:00,34.8,32.7,29.84,NE,56,4.0,13.0,92,0.04,,,1.16,LWC V2.10 B1702,2013-03-08 04:52:00,
2013-03-07 23:57:00,34.7,32.6,29.84,ESE,108,0.0,9.0,92,0.04,,,1.16,LWC V2.10 B1702,2013-03-08 04:57:00,